COSMOS 252 DEB, 3551

Orbit data source: Space-Track

COSMOS 252 DEB, 3551 is space debris in LEO originally from a launch on Fri, 01 Nov 1968 UTC launched from the Tyuratam Missile And Space Complex (TTMTR). Debris objects in space refer to the collection of defunct objects orbiting the Earth. Examples of debris include non-operational satellites, rocket bodies, and fragments generated from explosions, collisions, or faulty payload assembly.

Loading next visibility...
Identifier
3551, 1968-097D
Orbit
LEO
Country
Flag of CISCIS
Related business
Manufacturer
Unknown
Mission
Spacecraft
Bus & Motor
Unknown
Mass
Unknown
Launch date (UTC)
1968-11-01 (57 years ago)
Launch vehicle
Unknown
Launch site
Tyuratam Missile And Space Complex (TTMTR)
Object type
Payload
Rocket body
Debris
Shape & HBR
Unknown shape, 0.1 m
Radar Cross Section
Small (<0.1 m²)

Expand to show TLE details & history
Last TLE update: 10 hours ago

TLE from 10 hours ago
0 COSMOS 252 DEB
1 03551U 68097D   26104.20399783  .00003072  00000-0  67398-3 0  9996
2 03551  62.2816 282.1144 0618798 132.2979 233.2245 13.81296049799712
Epoch: 2026-04-14T04:53Z
TLE epoch observation values (Epoch: 2026-04-14T04:53:45.412Z)
Latitude
-0.00002°
Longitude
6.29157°
Altitude
1,249.909 km
Speed
7.087 km/s
True Right ascension
18h 48m 27s
True Declination
0° 00' 00"
Sunlit
Object was in daylight at epoch
Visualization orbit readout
Latitude
Unknown
Longitude
Unknown
Altitude
Unknown
Speed
Unknown
Apparent Right ascension
Unknown
Apparent Declination
Unknown
Sunlit
N/A
Visualization observer readout
Local Sidereal Time
21:42:58
Azimuth
Unknown
Elevation
Unknown
Doppler factor
Unknown
Orbital elements
Apogee altitude
1,412.212 km
Perigee altitude
504.265 km
Semi-major axis
7,336.376 km
Eccentricity
0.06188
Inclination
62.2816°
RAAN
282.1144°
Arg. of periapsis
132.2979°
True anomaly
227.80461°
Mean anomaly
233.2245°
Eccentric anomaly
230.48917°
Mean motion
3.45399 °/min
Orbital period
104.23 mins
BSTAR
0.00067398
Loading maneuver chart data...
Computing Atmospheric mass density...

Documentation

Showing up to 5 results
|